Regional Weather Roundup
Issued by NWS

Home | Current Version | Previous Version | Text Only | Print | Product List | Glossary On
Versions: 1 2 3 4 5 6 7 8 9 10 11 12 13 14 15 16 17 18 19 20 21 22 23 24 25 26 27 28 29 30 31 32 33 34 35 36 37 38 39 40 41 42 43 44 45 46 47 48 49 50
000
ASUS43 KDTX 281710
RWRMI
MICHIGAN HOURLY REGIONAL WEATHER ROUNDUP
NATIONAL WEATHER SERVICE DETROIT/PONTIAC MI
ISSUED BY NATIONAL WEATHER SERVICE GRAND RAPIDS MI
100 PM EDT SUN MAY 28 2017

NOTE: "FAIR" INDICATES FEW OR NO CLOUDS BELOW 12,000 FEET WITH NO
SIGNIFICANT WEATHER AND/OR OBSTRUCTION TO VISIBILITY.

MIZ047>049-052>055-059>063-066>070-074>076-081>083-281800-
SOUTHEAST LOWER MICHIGAN

CITY           SKY/WX    TMP DP  RH WIND       PRES   REMARKS
ADRIAN         CLOUDY    74  64  71 E5        29.73F
ALMA           SUNNY     74  54  48 S12       29.73S
ANN ARBOR      PTSUNNY   75  63  66 E7        29.73F
BAD AXE        SUNNY     72  55  54 S10       29.75F
DETROIT CITY   MOSUNNY   71  58  63 E9        29.75F
DETROIT        PTSUNNY   75  62  64 E8        29.74F
FLINT          SUNNY     74  55  51 SE6       29.73F
GROSSE ILE     PTSUNNY   69  61  74 S7        29.73F
HILLSDALE      CLOUDY    72  63  73 CALM      29.74S
HOWELL         MOSUNNY   74  57  55 SE9       29.73F

CITY           SKY/WX    TMP DP  RH WIND       PRES   REMARKS
JACKSON        PTSUNNY   76  63  64 S9        29.72F
LANSING        MOSUNNY   76  58  53 SE6       29.72F
MASON          PTSUNNY   74  62  66 SE8       29.72F
MONROE         PTSUNNY   69  59  69 E6        29.74S
MT. CLEMENS    PTSUNNY   70  59  66 E5        29.75F
PONTIAC        PTSUNNY   72  57  59 SE8       29.74F
PORT HOPE        N/A     63  55  75 E17       29.74F
PORT HURON     MOSUNNY   72  54  53 E5        29.76F
TRI CITIES     SUNNY     75  56  51 S6        29.73F
YPSILANTI      PTSUNNY   77  62  59 SE8       29.74F
$$
MIZ043>046-050>051-056>058-064>065-071>073-077>080-281800-
SOUTHWEST LOWER MICHIGAN

CITY           SKY/WX    TMP DP  RH WIND       PRES   REMARKS
BATTLE CREEK   CLOUDY    75  62  64 S10       29.73S
BENTON HARBOR  PTSUNNY   70  59  68 VRB5      29.75R
BIG RAPIDS     CLOUDY    70  52  54 SW8G18    29.74R
COLDWATER      MOSUNNY   74  65  73 S3        29.73S
HOLLAND        CLOUDY    69  57  65 NW16G25   29.76R
GRAND RAPIDS   PTSUNNY   76  59  55 SW8       29.72F
KALAMAZOO      PTSUNNY   75  62  64 S8        29.73S
MARSHALL       CLOUDY    75  63  65 S8        29.72S
MOUNT PLEASANT CLOUDY    74  55  49 S7        29.72S
MUSKEGON       CLOUDY    63  55  75 NW8G18    29.76R
STURGIS        CLOUDY    73  64  72 S5        29.72F
$$
MIZ016>042-281800-
NORTHERN LOWER MICHIGAN

CITY           SKY/WX    TMP DP  RH WIND       PRES   REMARKS
ALPENA         CLOUDY    69  60  73 E7        29.71F
BEAVER ISLAND  LGT RAIN  53  52  95 W3        29.73F
BELLAIRE       HVY RAIN  58  54  88 NW7G17    29.75R
CADILLAC       CLOUDY    66  58  76 W12       29.74R
CHARLEVOIX     CLOUDY    55  52  90 W8        29.77R
GAYLORD        CLOUDY    70  57  63 SW13      29.72F
HOUGHTON LAKE  PTSUNNY   72  55  55 S13G20    29.73F
MANISTEE       RAIN      54  54 100 CALM      29.77S FOG
OSCODA         MOSUNNY   73  54  50 S10G23    29.73F
PELLSTON       CLOUDY    67  55  65 N6        29.71F
TRAVERSE CITY  RAIN      58  55  90 W7        29.74R FOG
LUDINGTON      HVY RAIN  54  54 100 CALM      29.77S
$$
MIZ007>008-015-281800-
EASTERN UPPER MICHIGAN

CITY           SKY/WX    TMP DP  RH WIND       PRES   REMARKS
KINROSS        CLOUDY    63  54  72 NE5       29.72F
MACKINAC ISLAN CLOUDY    49  49 100 E9G16     29.72F
NEWBERRY       CLOUDY    56  55  97 SW5       29.72S
S. S. MARIE    CLOUDY    62  55  77 E7        29.73S
$$
MIZ004>006-011>014-085-281800-
CENTRAL UPPER MICHIGAN

CITY           SKY/WX    TMP DP  RH WIND       PRES   REMARKS
MANISTIQUE     RAIN      55  52  89 CALM      29.72F
ESCANABA       CLOUDY    57  56  96 CALM      29.70F
SAWYER-GWINN   CLOUDY    55  54  94 SE5       29.71F
$$
MIZ001>003-009>011-084-281800-
WESTERN UPPER MICHIGAN

CITY           SKY/WX    TMP DP  RH WIND       PRES   REMARKS
IRON MOUNTAIN  MOSUNNY   63  52  67 VRB5      29.68F
HOUGHTON       CLOUDY    63  54  72 S8        29.67F
COPPER HARBOR    N/A     60  56  86 CALM      29.66F
IRONWOOD       TSTM      53  50  89 N5        29.66R FOG
$$

ABBREVIATIONS USED IN REMARKS
   TC - TEMPERATURE IN CELSIUS
  WCI - WIND CHILL INDEX
   HX - HEAT INDEX
  VSB - VISIBILITY




USA.gov is the U.S. government's official web portal to all federal, state and local government web resources and services.